Weather History for Rifle, CO

Change the Weather History Date:

Thursday, February 20, 2014

  Actual Average Record
Temperature  
Mean Temperature 28 °F 32 °F  
Max Temperature 34 °F 44 °F 64 °F (1958)
Min Temperature 21 °F 20 °F -16 °F (1955)
Degree Days  
Heating Degree Days 37 33  
Month to date heating degree days 714 713  
Since 1 July heating degree days 5005 4748  
Cooling Degree Days 0 0  
Month to date cooling degree days 0 0  
Year to date cooling degree days 0 0  
Moisture  
Dew Point 9 °F    
Average Humidity 51    
Maximum Humidity 68    
Minimum Humidity 33    
Precipitation  
Precipitation 0.00 in 0.03 in 0.40 in (1986)
Month to date precipitation 0.35 0.53  
Year to date precipitation 1.34 1.34  
Sea Level Pressure  
Sea Level Pressure 30.17 in    
Wind  
Wind Speed 8 mph (West)    
Max Wind Speed 20 mph    
Max Gust Speed 26 mph    
Visibility 10 miles    
Events      
T = Trace of Precipitation, MM = Missing Value Source: NWS Daily Summary

Daily Weather History Graph

Daily Weather History Graph

Search for Another Location

Airport:

Trip Planner

Search our weather history database for the weather conditions in past years. The results will help you decide how hot, cold, wet, or windy it might be!

Date:

Astronomy

Feb. 20, 2014 Rise Set
Actual Time 6:56 AM MST 5:53 PM MST
Civil Twilight 6:29 AM MST 6:20 PM MST
Nautical Twilight 5:57 AM MST 6:51 PM MST
Astronomical Twilight 5:26 AM MST 7:23 PM MST
Moon 11:49 PM MST 9:42 AM MST
Length of Visible Light 11h 51m
Length of Day
10h 56m
Waning Gibbous, 70% of the Moon is Illuminated
Feb 20
Waning Gibbous
Feb 22
Last Quarter
Mar 1
New
Mar 8
First Quarter
Mar 16
Full

Hourly Weather History & Observations

Time (MST) Temp. Windchill Dew Point Humidity Pressure Visibility Wind Dir Wind Speed Gust Speed Precip Events Conditions
12:53 AM 28.0 °F 18.6 °F 9.0 °F 45% 29.95 in 10.0 mi WNW 10.4 mph - N/A   Overcast
1:53 AM 27.0 °F 14.7 °F 8.1 °F 45% 29.97 in 10.0 mi WNW 16.1 mph - N/A   Overcast
2:53 AM 26.1 °F 15.6 °F 7.0 °F 44% 29.99 in 10.0 mi NW 11.5 mph - N/A   Mostly Cloudy
3:53 AM 23.0 °F 14.7 °F 9.0 °F 55% 30.04 in 10.0 mi WNW 6.9 mph - N/A   Clear
4:53 AM 23.0 °F 13.1 °F 10.0 °F 58% 30.10 in 10.0 mi NW 9.2 mph - N/A   Clear
5:53 AM 23.0 °F 14.7 °F 9.0 °F 55% 30.14 in 10.0 mi NW 6.9 mph - N/A   Clear
6:53 AM 21.9 °F 15.7 °F 9.0 °F 58% 30.17 in 10.0 mi North 4.6 mph - N/A   Partly Cloudy
7:53 AM 23.0 °F - 9.0 °F 55% 30.21 in 10.0 mi Calm Calm - N/A   Scattered Clouds
8:53 AM 24.1 °F 16.0 °F 10.9 °F 57% 30.22 in 10.0 mi SE 6.9 mph - N/A   Partly Cloudy
9:53 AM 26.1 °F - 9.0 °F 49% 30.24 in 10.0 mi Calm Calm - N/A   Overcast
10:53 AM 28.0 °F 18.6 °F 8.1 °F 43% 30.24 in 10.0 mi West 10.4 mph - N/A   Overcast
11:53 AM 28.9 °F 19.8 °F 6.1 °F 38% 30.24 in 10.0 mi WSW 10.4 mph - N/A   Mostly Cloudy
12:53 PM 30.0 °F 24.1 °F 7.0 °F 38% 30.22 in 10.0 mi West 5.8 mph - N/A   Partly Cloudy
1:53 PM 32.0 °F 23.0 °F 8.1 °F 37% 30.20 in 10.0 mi WSW 11.5 mph - N/A   Clear
2:53 PM 32.0 °F 23.0 °F 7.0 °F 35% 30.20 in 10.0 mi WSW 11.5 mph - N/A   Clear
3:53 PM 33.1 °F 23.9 °F 10.9 °F 40% 30.20 in 10.0 mi West 12.7 mph - N/A   Clear
4:53 PM 33.1 °F 21.9 °F 12.9 °F 43% 30.20 in 10.0 mi West 18.4 mph - N/A   Clear
5:53 PM 33.1 °F 24.9 °F 8.1 °F 35% 30.20 in 10.0 mi SW 10.4 mph - N/A   Mostly Cloudy
6:53 PM 30.0 °F 23.2 °F 10.9 °F 45% 30.22 in 10.0 mi SW 6.9 mph - N/A   Clear
7:53 PM 26.1 °F 16.8 °F 10.9 °F 53% 30.23 in 10.0 mi South 9.2 mph - N/A   Clear
8:53 PM 24.1 °F 19.7 °F 10.0 °F 55% 30.23 in 10.0 mi NE 3.5 mph - N/A   Clear
9:53 PM 23.0 °F 13.9 °F 10.0 °F 58% 30.22 in 10.0 mi ESE 8.1 mph - N/A   Clear
10:53 PM 21.9 °F 13.4 °F 12.9 °F 68% 30.22 in 10.0 mi WSW 6.9 mph - N/A   Clear
11:53 PM 21.9 °F 15.7 °F 12.0 °F 66% 30.19 in 10.0 mi SW 4.6 mph - N/A   Scattered Clouds